C/2011 J2 ( LINEAR )

Japanese version
Home page
Updated on September 13, 2014

---------------------------------------------------------------------

* Profile

Discovery Date May 4, 2011
Magnitude 19.7 mag
Discoverer Lincoln Laboratory Near-Earth Asteroid Research project

* Pictures

* Orbital Elements

Epoch 2013 Dec. 14.0 TT = JDT 2456640.5
T 2013 Dec. 25.29545 TT                                 MPC
q   3.4434186            (2000.0)            P               Q
z  -0.0001468      Peri.   85.29365     +0.07043504     +0.97005740
 +/-0.0000002      Node   163.94726     +0.16358393     -0.24109513
e   1.0005055      Incl.  122.79886     +0.98401179     -0.02935609
From 3020 observations 2011 Mar. 10-2014 Apr. 9, mean residual 0".5.

* Finding Charts

* Magnitudes Graph

        m1 = 7.2 + 5 log d + 7.5 log r

---------------------------------------------------------------------

The orbital elements are published on M.P.E.C. 2014-G81.
The charts are made with StellaNavigator Ver.8 (AstroArts).
The magnitudes graphs are made with Comet for Windows.

---------------------------------------------------------------------

Copyright(C) Seiichi Yoshida (comet@aerith.net). All rights reserved.